ONEWEB-0700, 61606

Orbit data source: Space-Track

ONEWEB-0700, 61606 is a payload satellite owned by Eut. One Web (UK) in LEO that was launched on Sun, 20 Oct 2024 UTC via an FALCON 9 launch vehicle from the Air Force Western Test Range (AFWTR). Payload-class satellites include a variety of spacecraft equipped with specific instruments for various scientific and technological missions. These include communications satellites like Starlink; space stations such as the ISS; scientific satellites like the Hubble; Earth observation satellites from companies like Planet Labs, Umbra, and HawkEye 360; GPS; miniature CubeSats for education and research; and military/defense satellites.

Loading next visibility...
Identifier
61606, 2024-188N
Orbit
LEO
Last TLE update
8 hours ago
Origin
Manufacturer
One Web
Mission
Operational Commercial Communications
Bus & Motor
ARROW, Unknown motor
Mass
148 kg wet, ~140 kg dry
Launch date (UTC)
2024-10-20 (8 months ago)
Launch vehicle
FALCON 9
Launch site
Air Force Western Test Range (AFWTR)
Object type
Payload
Rocket body
Debris
Shape & HBR
Trap Box + 2 Pan, 5 m
Radar Cross Section
2.032 m², Large (>1 m²)

Expand to show TLE details & history

TLE from 8 hours ago
0 ONEWEB-0700
1 61606U 24188N   25181.81995588 -.00000599  00000-0 -17522-2 0  9996
2 61606  87.8768 106.2353 0002372  61.9282 298.2085 13.10374696 37281
Epoch: 2025-06-30T19:40Z
TLE epoch observation values (Epoch: 2025-06-30T19:40:44.188Z)
Latitude
0.00001°
Longitude
-108.0731°
Altitude
1,223.745 km
Speed
7.243 km/s
True Right ascension
07h 04m 56s
True Declination
0° 00' 00"
Sunlit
Object was in daylight at epoch
Visualization orbit readout
Latitude
-43.1203°
Longitude
73.83605°
Altitude
1,240.022 km
Speed
7.233 km/s
Apparent Right ascension
22h 59m 10s
Apparent Declination
-63° 34' 50"
Sunlit
Object is in full shadow
Visualization observer readout
Local Sidereal Time
15:46:00
Azimuth
144.728° SSE
Elevation
-42.982°
Doppler factor
1
Orbital elements
Apogee altitude
1,220.632 km
Perigee altitude
1,217.028 km
Semi-major axis
7,596.967 km
Eccentricity
0.00024
Inclination
87.8768°
RAAN
106.2353°
Arg. of periapsis
61.9282°
True anomaly
Unknown
Mean anomaly
298.2085°
Eccentric anomaly
Unknown
Mean motion
3.2778 °/min
Orbital period
109.83 mins
BSTAR
-0.0017522
Loading maneuver chart data...
Loading SW <> Apogee altitude chart data...
Loading historical data...
Loading historical data...
Loading historical data...
Loading historical data...
Loading historical data...
Loading historical data...
Loading historical data...

ONEWEB-0700 Visibility forecast

Observer location: undefined°, undefined°

Span
Click to sort rows by Start time (UTC) header in descending order
Start Az.
Max El. time (UTC)
Max El. Az.
Max El.
End time (UTC)
End Az.
7 mins2025-07-01 05:28:35.619Z40.406° NE2025-07-01 05:32:35.619Z75.323° E15.48°2025-07-01 05:35:35.619Z101.549° ESE
12 mins2025-07-01 07:17:35.619Z358.043° N2025-07-01 07:23:35.619Z209.142° SW44.62°2025-07-01 07:29:35.619Z183.908° SSW
5 mins2025-07-01 09:09:35.619Z310.062° NW2025-07-01 09:11:35.619Z293.029° NW13.602°2025-07-01 09:14:35.619Z267.259° W
8 mins2025-07-01 17:49:35.619Z106.217° ESE2025-07-01 17:53:35.619Z69.441° E17.536°2025-07-01 17:57:35.619Z35.09° NE
13 mins2025-07-01 19:36:35.619Z186.606° SSW2025-07-01 19:42:35.619Z294.556° NW44.119°2025-07-01 19:49:35.619Z357.743° N
|